Location: *
(37.5724°S, 58.0067°E)
Time: 11:44:41
(UTC+00:00)

Delta 2 Rocket - Pass Details

Date: 26 September 2020
Orbit: 415 x 807 km, 35.6° (Epoch: 29 October)

Event Time Altitude Azimuth Distance (km) Brightness Sun altitude
Rises 16:20:42 0° 265° (W) 3,327 8.4 -26.2°
Reaches altitude 10° 16:23:18 10° 268° (W) 2,379 7.4 -26.7°
Enters shadow 16:28:25 56° 323° (NW) 912 4.3 -27.6°
